User: anonymous   Login
Location: Newark
(42.8481°N, 0.4872°E)
Time: 14:39:10
(UTC+00:00)
Language:

Transit 2A Rocket - Orbit

View from above orbital plane
View from above orbital plane
View from above satellite
View from above satellite

Ground track
Ground track

The orbit data is extracted from the following two-line orbital elements,

1    47U 60007C   20304.87001702 -.00000012 +00000-0 +22377-4 0  9997
2    47 066.6644 152.8909 0231217 205.8519 153.0888 14.42107341154207
Epoch (UTC): 30 October 2020 20:52:49
Eccentricity: 0.0231217
inclination: 66.6644°
perigee height: 586 km
apogee height: 916 km
right ascension of ascending node: 152.8909°
argument of perigee: 205.8519°
revolutions per day: 14.42107341
mean anomaly at epoch: 153.0888°
orbit number at epoch: 15420

The dashed part of the orbit path shows where the satellite is in the earth's shadow,  

DLR